TimeGMT,TemperatureF,Dew PointF,Humidity,Sea Level PressureIn,VisibilityMPH,Wind Direction,Wind SpeedMPH,Gust SpeedMPH,PrecipitationIn,Events,Conditions,WindDirDegrees,DateUTC
12:20 AM,32.0,28.4,87,29.98,6.2,NE,4.6,-,N/A,,Mostly Cloudy,50,2013-01-17 00:20:00
12:50 AM,33.8,26.6,75,29.98,6.2,ENE,5.8,-,N/A,,Overcast,60,2013-01-17 00:50:00
1:20 AM,32.0,26.6,80,29.98,6.2,ENE,4.6,-,N/A,,Overcast,60,2013-01-17 01:20:00
1:50 AM,33.8,26.6,75,29.98,6.2,ENE,5.8,-,N/A,,Overcast,70,2013-01-17 01:50:00
2:20 AM,33.8,26.6,75,29.98,6.2,East,8.1,-,N/A,,Overcast,80,2013-01-17 02:20:00
2:50 AM,33.8,26.6,75,29.98,6.2,East,5.8,-,N/A,,Overcast,80,2013-01-17 02:50:00
3:20 AM,33.8,26.6,75,29.98,6.2,ENE,5.8,-,N/A,,Mostly Cloudy,70,2013-01-17 03:20:00
3:50 AM,33.8,26.6,75,29.98,6.2,ENE,5.8,-,N/A,,Mostly Cloudy,70,2013-01-17 03:50:00
4:20 AM,33.8,28.4,81,29.98,6.2,ENE,6.9,-,N/A,,Mostly Cloudy,60,2013-01-17 04:20:00
4:50 AM,33.8,28.4,81,29.98,6.2,ENE,5.8,-,N/A,,Overcast,60,2013-01-17 04:50:00
5:20 AM,33.8,28.4,81,29.95,6.2,ENE,5.8,-,N/A,,Overcast,60,2013-01-17 05:20:00
5:50 AM,33.8,28.4,81,29.95,6.2,ENE,6.9,-,N/A,,Overcast,60,2013-01-17 05:50:00
6:20 AM,33.8,26.6,75,29.95,6.2,ENE,5.8,-,N/A,,Overcast,60,2013-01-17 06:20:00
6:50 AM,33.8,28.4,81,29.98,6.2,NE,5.8,-,N/A,,Mostly Cloudy,50,2013-01-17 06:50:00
7:20 AM,33.8,28.4,81,29.98,6.2,ENE,5.8,-,N/A,,Mostly Cloudy,60,2013-01-17 07:20:00
7:50 AM,33.8,28.4,81,29.95,6.2,ENE,5.8,-,N/A,,Mostly Cloudy,60,2013-01-17 07:50:00
8:20 AM,33.8,26.6,75,29.98,6.2,ENE,6.9,-,N/A,,Mostly Cloudy,70,2013-01-17 08:20:00
8:50 AM,33.8,26.6,75,29.98,6.2,ENE,6.9,-,N/A,,Mostly Cloudy,70,2013-01-17 08:50:00
9:20 AM,33.8,26.6,75,29.98,6.2,ENE,5.8,-,N/A,,Mostly Cloudy,60,2013-01-17 09:20:00
9:50 AM,33.8,28.4,81,29.98,6.2,ENE,6.9,-,N/A,,Mostly Cloudy,70,2013-01-17 09:50:00
10:20 AM,33.8,28.4,81,29.98,6.2,ENE,5.8,-,N/A,,Mostly Cloudy,70,2013-01-17 10:20:00
10:50 AM,33.8,26.6,75,29.98,6.2,ENE,9.2,-,N/A,,Mostly Cloudy,70,2013-01-17 10:50:00
11:20 AM,35.6,28.4,75,29.98,6.2,ENE,6.9,-,N/A,,Partly Cloudy,70,2013-01-17 11:20:00
11:50 AM,35.6,26.6,70,29.95,-9999.0,ENE,6.9,-,N/A,,Clear,70,2013-01-17 11:50:00
12:20 PM,35.6,26.6,70,29.95,-9999.0,ENE,9.2,-,N/A,,Clear,70,2013-01-17 12:20:00
12:50 PM,35.6,26.6,70,29.95,-9999.0,ENE,11.5,-,N/A,,Clear,70,2013-01-17 12:50:00
1:20 PM,35.6,26.6,70,29.92,-9999.0,ENE,11.5,-,N/A,,Clear,70,2013-01-17 13:20:00
1:50 PM,35.6,26.6,70,29.92,-9999.0,ENE,12.7,-,N/A,,Clear,70,2013-01-17 13:50:00
2:20 PM,35.6,28.4,75,29.92,-9999.0,ENE,8.1,-,N/A,,Clear,70,2013-01-17 14:20:00
2:50 PM,35.6,26.6,70,29.89,-9999.0,ENE,8.1,-,N/A,,Clear,70,2013-01-17 14:50:00
3:20 PM,35.6,26.6,70,29.89,-9999.0,ENE,10.4,-,N/A,,Clear,70,2013-01-17 15:20:00
3:50 PM,35.6,26.6,70,29.89,-9999.0,ENE,9.2,-,N/A,,Clear,70,2013-01-17 15:50:00
4:20 PM,35.6,26.6,70,29.89,-9999.0,ENE,9.2,-,N/A,,Clear,70,2013-01-17 16:20:00
4:50 PM,35.6,26.6,70,29.86,-9999.0,ENE,9.2,-,N/A,,Clear,60,2013-01-17 16:50:00
5:20 PM,33.8,26.6,75,29.86,-9999.0,ENE,9.2,-,N/A,,Clear,70,2013-01-17 17:20:00
5:50 PM,33.8,26.6,75,29.86,-9999.0,ENE,10.4,-,N/A,,Clear,70,2013-01-17 17:50:00
6:20 PM,33.8,26.6,75,29.86,-9999.0,ENE,8.1,-,N/A,,Clear,70,2013-01-17 18:20:00
6:50 PM,35.6,26.6,70,29.83,-9999.0,ENE,9.2,-,N/A,,Clear,70,2013-01-17 18:50:00
7:20 PM,33.8,26.6,75,29.83,-9999.0,ENE,11.5,-,N/A,,Clear,70,2013-01-17 19:20:00
7:50 PM,33.8,26.6,75,29.83,-9999.0,ENE,9.2,-,N/A,,Clear,70,2013-01-17 19:50:00
8:20 PM,33.8,26.6,75,29.83,6.2,ENE,10.4,-,N/A,,Partly Cloudy,70,2013-01-17 20:20:00
8:50 PM,33.8,26.6,75,29.83,6.2,ENE,12.7,-,N/A,,Scattered Clouds,70,2013-01-17 20:50:00
9:20 PM,33.8,28.4,81,29.80,6.2,ENE,12.7,-,N/A,,Scattered Clouds,70,2013-01-17 21:20:00
9:50 PM,33.8,28.4,81,29.80,6.2,East,12.7,-,N/A,,Scattered Clouds,80,2013-01-17 21:50:00
10:20 PM,33.8,28.4,81,29.80,6.2,ENE,10.4,-,N/A,,Mostly Cloudy,70,2013-01-17 22:20:00
10:50 PM,35.6,28.4,75,29.80,6.2,East,16.1,-,N/A,,Mostly Cloudy,90,2013-01-17 22:50:00
11:20 PM,35.6,28.4,75,29.77,6.2,East,12.7,-,N/A,,Mostly Cloudy,90,2013-01-17 23:20:00
11:50 PM,35.6,28.4,75,29.77,6.2,East,16.1,-,N/A,,Mostly Cloudy,90,2013-01-17 23:50:00